Home   Weather   Bizerte   Past weeks
Flag for Tunisia

Past Weather in Bizerte, Tunisia — Yesterday and Last 2 Weeks

Now
50 °F

Partly cloudy.


Feels Like: 47 °F
Forecast: 56 / 46 °F
Wind: 7 mph from Southwest

Location: Bizerte Airport

Current Time: Jan 18, 2019 at 9:39:15 pm

Latest Report: Jan 18, 2019 at 9:00 pm


Visibility: N/A

Pressure: 30.01 "Hg

Humidity: 94%

Dew Point: 48 °F

Location of BizerteLocation

Past Weather in Bizerte — Graph

°F

Bizerte Temperature Yesterday

Maximum temperature yesterday: 61 °F (at 3:00 pm)
Minimum temperature yesterday: 41 °F (at 8:00 am)
Average temperature yesterday: 50 °F

High & Low Weather Summary for the Past Weeks

 TemperatureHumidityPressure
High61 °F (Jan 7, 11:00 am)100% (Jan 18, 8:00 am)30.36 "Hg (Jan 18, 8:00 am)
Low36 °F (Jan 18, 6:00 am)36% (Jan 5, 1:00 pm)29.71 "Hg (Jan 9, 10:00 pm)
Average51 °F73%30.09 "Hg
* Reported Jan 3 7:00 pm — Jan 18 7:00 pm, Bizerte. Weather by CustomWeather, © 2019

Note: Actual official high and low records may vary slightly from our data, if they occured in-between our weather recording intervals... More about our weather records

Advertising

Bizerte Weather History for the Previous 24 Hours

Scroll right to see more
 ConditionsComfort  
Time TempWeatherWind HumidityBarometerVisibility
7:00 pm
Fri, Jan 18
52 °FLight rain. Partly cloudy.7 mph88%29.98 "Hg5 mi
6:00 pm52 °FPartly cloudy.9 mph88%29.98 "HgN/A
5:00 pm54 °FScattered clouds.12 mph77%29.98 "HgN/A
4:00 pm57 °FScattered clouds.13 mph63%29.95 "HgN/A
3:00 pm57 °FScattered clouds.10 mph63%29.95 "HgN/A
2:00 pm59 °FPassing clouds.9 mph55%29.98 "HgN/A
1:00 pm59 °FPassing clouds.6 mph55%29.98 "HgN/A
12:00 pm55 °FPassing clouds.5 mph63%30.01 "HgN/A
11:00 am50 °FPassing clouds.5 mph76%30.04 "HgN/A
10:00 am46 °FSunny.2 mph87%30.01 "Hg10 mi
9:00 am41 °FSunny.2 mph100%30.01 "Hg10 mi
8:00 am36 °FSunny.3 mph100%30.01 "Hg10 mi
7:00 am37 °FClear.No wind93%29.98 "Hg4 mi
6:00 am36 °FPassing clouds.No wind93%29.98 "HgN/A
1:00 am41 °FPassing clouds.3 mph93%30.01 "HgN/A
11:00 pm
Thu, Jan 17
43 °FPassing clouds.No wind93%30.04 "HgN/A
10:00 pm43 °FPassing clouds.No wind87%30.04 "HgN/A
9:00 pm45 °FClear.No wind87%30.04 "Hg10 mi
Weather by CustomWeather, © 2019

See weather overview